Weather History for Washington, DC

Change the Weather History Date:

Thursday, November 10, 2011

  Actual Average Record
Temperature  
Mean Temperature 53 °F 52 °F  
Max Temperature 59 °F 60 °F 76 °F (1975)
Min Temperature 46 °F 43 °F 27 °F (1914)
Degree Days  
Heating Degree Days 12 14  
Month to date heating degree days 131 122  
Since 1 July heating degree days 357 351  
Cooling Degree Days 0 0  
Month to date cooling degree days 0 0  
Year to date cooling degree days 1925 1547  
Growing Degree Days 2 (Base 50)    
Moisture  
Dew Point 45 °F    
Average Humidity 77    
Maximum Humidity 100    
Minimum Humidity 54    
Precipitation  
Precipitation 0.06 in 0.10 in 1.77 in (1990)
Month to date precipitation 0.06 1.09  
Year to date precipitation 40.11 34.61  
Snow  
Snow 0.00 in 0.00 in T in (1987)
Month to date snowfall 0.0 0.1  
Since 1 July snowfall T 0.1  
Snow Depth 0.00 in    
Sea Level Pressure  
Sea Level Pressure 29.90 in    
Wind  
Wind Speed 8 mph (North)    
Max Wind Speed 23 mph    
Max Gust Speed 31 mph    
Visibility 6 miles    
Events Fog , Rain    
T = Trace of Precipitation, MM = Missing Value Source: NWS Daily Summary

Daily Weather History Graph

Daily Weather History Graph

Search for Another Location

Airport:

Trip Planner

Search our weather history database for the weather conditions in past years. The results will help you decide how hot, cold, wet, or windy it might be!

Date:

Astronomy

Nov. 10, 2011 Rise Set
Actual Time 6:44 AM EST 4:58 PM EST
Civil Twilight 6:16 AM EST 5:26 PM EST
Nautical Twilight 5:44 AM EST 5:58 PM EST
Astronomical Twilight 5:13 AM EST 6:30 PM EST
Moon 4:45 PM EST (11/10) 6:34 AM EST (11/10)
Length of Visible Light 11h 10m
Length of Day
10h 13m
Full, 100% of the Moon is Illuminated
Nov 10
Full
Nov 10
Full
Nov 18
Last Quarter
Nov 25
New
Dec 2
First Quarter

Hourly Weather History & Observations

Time (EST) Temp. Windchill Dew Point Humidity Pressure Visibility Wind Dir Wind Speed Gust Speed Precip Events Conditions
12:52 AM 51.1 °F - 48.9 °F 92% 29.98 in 6.0 mi Calm Calm - N/A   Mostly Cloudy
1:52 AM 50.0 °F - 48.9 °F 96% 29.96 in 6.0 mi Calm Calm - N/A   Mostly Cloudy
2:52 AM 50.0 °F - 48.0 °F 93% 29.94 in 7.0 mi NE 3.5 mph - N/A   Mostly Cloudy
3:52 AM 48.9 °F - 48.0 °F 97% 29.93 in 6.0 mi Calm Calm - N/A   Mostly Cloudy
4:15 AM 48.2 °F - 48.2 °F 100% 29.92 in 7.0 mi ENE 4.6 mph - N/A   Overcast
4:52 AM 48.2 °F - 48.2 °F 100% 29.91 in 6.0 mi NE 4.6 mph - N/A   Mostly Cloudy
5:05 AM 48.2 °F - 48.2 °F 100% 29.91 in 6.0 mi NE 4.6 mph - N/A   Overcast
5:27 AM 48.2 °F - 48.2 °F 100% 29.92 in 5.0 mi ENE 5.8 mph - N/A   Overcast
5:52 AM 48.9 °F - 46.9 °F 93% 29.91 in 7.0 mi NE 4.6 mph - N/A   Mostly Cloudy
6:24 AM 48.2 °F - 46.4 °F 93% 29.90 in 5.0 mi NE 5.8 mph - N/A   Mostly Cloudy
6:32 AM 48.2 °F - 48.2 °F 100% 29.90 in 3.0 mi ENE 6.9 mph - N/A   Mostly Cloudy
6:52 AM 48.2 °F - 48.2 °F 100% 29.91 in 2.0 mi ENE 5.8 mph - N/A   Overcast
6:58 AM 48.2 °F - 48.2 °F 100% 29.91 in 1.5 mi NE 4.6 mph - N/A   Overcast
7:02 AM 48.2 °F - 48.2 °F 100% 29.91 in 1.2 mi ENE 4.6 mph - N/A   Overcast
7:12 AM 50.0 °F - 48.2 °F 94% 29.91 in 0.8 mi ENE 6.9 mph - N/A   Overcast
7:24 AM 50.0 °F - 48.2 °F 94% 29.91 in 0.2 mi ENE 6.9 mph - N/A Fog Fog
7:42 AM 50.0 °F - 48.2 °F 94% 29.92 in 0.1 mi NE 4.6 mph - N/A Fog Fog
7:52 AM 50.0 °F - 50.0 °F 100% 29.92 in 0.1 mi NE 3.5 mph - N/A Fog Fog
8:11 AM 50.0 °F - 50.0 °F 100% 29.91 in 0.2 mi NE 3.5 mph - N/A Fog Fog
8:19 AM 51.8 °F - 50.0 °F 94% 29.92 in 0.8 mi NNE 3.5 mph - N/A   Overcast
8:42 AM 51.8 °F - 51.8 °F 100% 29.92 in 2.0 mi NNW 3.5 mph - N/A   Overcast
8:47 AM 51.8 °F - 51.8 °F 100% 29.92 in 3.0 mi North 5.8 mph - N/A   Overcast
8:52 AM 52.0 °F - 51.1 °F 97% 29.92 in 4.0 mi North 3.5 mph - N/A   Overcast
9:07 AM 53.6 °F - 51.8 °F 94% 29.92 in 5.0 mi NNW 4.6 mph - N/A   Overcast
9:52 AM 55.0 °F - 51.1 °F 86% 29.91 in 8.0 mi NNW 9.2 mph - N/A   Overcast
10:52 AM 57.9 °F - 46.9 °F 67% 29.91 in 10.0 mi NNW 16.1 mph 24.2 mph N/A   Overcast
11:52 AM 54.0 °F - 43.0 °F 66% 29.90 in 10.0 mi NNW 15.0 mph 27.6 mph N/A   Overcast
12:52 PM 51.1 °F - 43.0 °F 74% 29.88 in 10.0 mi North 15.0 mph - N/A   Overcast
1:25 PM 50.0 °F - 42.8 °F 76% 29.88 in 4.0 mi North 16.1 mph - 0.00 in Rain Light Rain
1:35 PM 48.2 °F - 42.8 °F 82% 29.87 in 3.0 mi North 15.0 mph - 0.00 in Rain Light Rain
1:52 PM 48.0 °F - 44.1 °F 86% 29.87 in 6.0 mi North 11.5 mph - 0.01 in Rain Light Rain
2:52 PM 48.2 °F - 42.8 °F 82% 29.85 in 10.0 mi North 12.7 mph - N/A Rain Light Rain
3:52 PM 48.0 °F - 43.0 °F 83% 29.83 in 10.0 mi NNW 9.2 mph - 0.02 in Rain Light Rain
4:52 PM 48.2 °F - 42.8 °F 82% 29.84 in 6.0 mi NW 9.2 mph - N/A Rain Light Rain
5:52 PM 48.0 °F - 42.1 °F 80% 29.85 in 10.0 mi NNW 6.9 mph - 0.01 in   Overcast
6:52 PM 48.0 °F - 39.0 °F 71% 29.85 in 10.0 mi North 9.2 mph - N/A   Overcast
7:52 PM 48.0 °F - 35.1 °F 61% 29.84 in 10.0 mi NNW 11.5 mph - N/A   Overcast
8:52 PM 48.0 °F - 33.1 °F 56% 29.85 in 10.0 mi NNW 10.4 mph - N/A   Mostly Cloudy
9:52 PM 48.0 °F - 32.0 °F 54% 29.84 in 10.0 mi NW 11.5 mph - N/A   Mostly Cloudy
10:52 PM 46.9 °F - 32.0 °F 56% 29.83 in 10.0 mi West 6.9 mph - N/A   Overcast
11:52 PM 46.0 °F 41.0 °F 30.0 °F 54% 29.83 in 10.0 mi WNW 10.4 mph - N/A   Scattered Clouds